Time,TemperatureF,DewpointF,PressureIn,WindDirection,WindDirectionDegrees,WindSpeedMPH,WindSpeedGustMPH,Humidity,HourlyPrecipIn,Conditions,Clouds,dailyrainin,SoftwareType,DateUTC
2013-02-05 00:01:00,34.0,30.0,29.98,North,355,0.0,6.0,86,0.00,,,0.02,,2013-02-05 06:01:00,
2013-02-05 00:11:00,34.0,30.0,29.98,North,355,0.0,6.0,86,0.00,,,0.02,,2013-02-05 06:11:00,
2013-02-05 00:21:00,33.0,30.0,29.97,NNE,26,0.0,0.0,87,0.00,,,0.02,,2013-02-05 06:21:00,
2013-02-05 00:32:00,32.0,29.0,29.98,North,349,0.0,0.0,89,0.00,,,0.02,,2013-02-05 06:32:00,
2013-02-05 00:42:00,32.0,29.0,29.98,North,349,0.0,0.0,89,0.00,,,0.02,,2013-02-05 06:42:00,
2013-02-05 00:52:00,32.0,29.0,29.98,NNW,336,0.0,2.0,88,0.00,,,0.02,,2013-02-05 06:52:00,
2013-02-05 01:01:00,32.0,29.0,29.98,NNW,331,0.0,0.0,87,0.00,,,0.02,,2013-02-05 07:01:00,
2013-02-05 01:11:00,32.0,29.0,29.98,NNW,331,0.0,0.0,87,0.00,,,0.02,,2013-02-05 07:11:00,
2013-02-05 01:22:00,31.0,28.0,29.98,North,355,0.0,0.0,87,0.00,,,0.02,,2013-02-05 07:22:00,
2013-02-05 01:31:00,31.0,28.0,29.99,NNW,341,0.0,0.0,87,0.00,,,0.02,,2013-02-05 07:31:00,
2013-02-05 01:41:00,31.0,28.0,29.99,NNW,341,0.0,0.0,87,0.00,,,0.02,,2013-02-05 07:41:00,
2013-02-05 01:52:00,30.0,27.0,30.00,NNW,328,0.0,0.0,87,0.00,,,0.02,,2013-02-05 07:52:00,
2013-02-05 02:01:00,30.0,27.0,29.99,NNW,329,0.0,5.0,87,0.00,,,0.02,,2013-02-05 08:01:00,
2013-02-05 02:11:00,30.0,27.0,29.99,NNW,329,0.0,5.0,87,0.00,,,0.02,,2013-02-05 08:11:00,
2013-02-05 02:21:00,30.0,27.0,30.00,NNW,330,0.0,0.0,88,0.00,,,0.02,,2013-02-05 08:21:00,
2013-02-05 02:31:00,29.0,26.0,29.99,NNW,343,0.0,0.0,89,0.00,,,0.02,,2013-02-05 08:31:00,
2013-02-05 02:41:00,29.0,26.0,29.99,NNW,343,0.0,0.0,89,0.00,,,0.02,,2013-02-05 08:41:00,
2013-02-05 02:52:00,29.0,26.0,29.99,NW,317,0.0,1.0,89,0.00,,,0.02,,2013-02-05 08:52:00,
2013-02-05 03:02:00,29.0,26.0,29.99,NNW,341,0.0,0.0,89,0.00,,,0.02,,2013-02-05 09:02:00,
2013-02-05 03:11:00,29.0,26.0,29.99,NNW,341,0.0,0.0,89,0.00,,,0.02,,2013-02-05 09:11:00,
2013-02-05 03:21:00,29.0,26.0,29.98,NNW,336,0.0,0.0,90,0.00,,,0.02,,2013-02-05 09:21:00,
2013-02-05 03:32:00,28.0,25.0,29.98,NNW,337,0.0,4.0,90,0.00,,,0.02,,2013-02-05 09:32:00,
2013-02-05 03:42:00,28.0,25.0,29.98,NNW,337,0.0,4.0,90,0.00,,,0.02,,2013-02-05 09:42:00,
2013-02-05 03:52:00,28.0,25.0,29.98,NNW,331,0.0,0.0,90,0.00,,,0.02,,2013-02-05 09:52:00,
2013-02-05 04:01:00,28.0,26.0,29.98,NNW,331,0.0,0.0,91,0.00,,,0.02,,2013-02-05 10:01:00,
2013-02-05 04:11:00,28.0,26.0,29.98,NNW,331,0.0,0.0,91,0.00,,,0.02,,2013-02-05 10:11:00,
2013-02-05 04:21:00,28.0,26.0,29.98,NNW,331,0.0,0.0,91,0.00,,,0.02,,2013-02-05 10:21:00,
2013-02-05 04:32:00,27.0,25.0,30.00,NNW,331,0.0,0.0,91,0.00,,,0.02,,2013-02-05 10:32:00,
2013-02-05 04:42:00,27.0,25.0,30.00,NNW,331,0.0,0.0,91,0.00,,,0.02,,2013-02-05 10:42:00,
2013-02-05 04:52:00,27.0,25.0,29.99,NNW,331,0.0,0.0,91,0.00,,,0.02,,2013-02-05 10:52:00,
2013-02-05 05:01:00,28.0,26.0,30.00,NNW,329,0.0,3.0,91,0.00,,,0.02,,2013-02-05 11:01:00,
2013-02-05 05:11:00,28.0,26.0,30.00,NNW,329,0.0,3.0,91,0.00,,,0.02,,2013-02-05 11:11:00,
2013-02-05 05:22:00,28.0,26.0,29.99,NNW,329,0.0,0.0,91,0.00,,,0.02,,2013-02-05 11:22:00,
2013-02-05 05:32:00,27.0,25.0,30.00,NNW,329,0.0,0.0,91,0.00,,,0.02,,2013-02-05 11:32:00,
2013-02-05 05:42:00,27.0,25.0,30.00,NNW,329,0.0,0.0,91,0.00,,,0.02,,2013-02-05 11:42:00,
2013-02-05 05:52:00,27.0,25.0,30.00,NNW,328,0.0,0.0,91,0.00,,,0.02,,2013-02-05 11:52:00,
2013-02-05 06:01:00,27.0,25.0,30.01,NW,313,0.0,0.0,92,0.00,,,0.02,,2013-02-05 12:01:00,
2013-02-05 06:12:00,27.0,25.0,30.01,NW,313,0.0,0.0,92,0.00,,,0.02,,2013-02-05 12:12:00,
2013-02-05 06:22:00,27.0,25.0,30.01,NW,313,0.0,0.0,92,0.00,,,0.02,,2013-02-05 12:22:00,
2013-02-05 06:32:00,26.0,24.0,30.01,NW,313,0.0,0.0,91,0.00,,,0.02,,2013-02-05 12:32:00,
2013-02-05 06:42:00,26.0,24.0,30.01,NW,313,0.0,0.0,91,0.00,,,0.02,,2013-02-05 12:42:00,
2013-02-05 06:52:00,26.0,24.0,30.01,NW,313,0.0,0.0,92,0.00,,,0.02,,2013-02-05 12:52:00,
2013-02-05 07:01:00,26.0,24.0,30.01,WNW,293,0.0,0.0,92,0.00,,,0.02,,2013-02-05 13:01:00,
2013-02-05 07:12:00,26.0,24.0,30.01,WNW,293,0.0,0.0,92,0.00,,,0.02,,2013-02-05 13:12:00,
2013-02-05 07:22:00,26.0,24.0,30.03,WNW,293,0.0,0.0,93,0.00,,,0.02,,2013-02-05 13:22:00,
2013-02-05 07:32:00,27.0,25.0,30.03,WNW,293,0.0,0.0,93,0.00,,,0.02,,2013-02-05 13:32:00,
2013-02-05 07:42:00,27.0,25.0,30.03,WNW,293,0.0,0.0,93,0.00,,,0.02,,2013-02-05 13:42:00,
2013-02-05 07:52:00,27.0,25.0,30.04,WNW,293,0.0,0.0,93,0.00,,,0.02,,2013-02-05 13:52:00,
2013-02-05 08:01:00,28.0,27.0,30.04,WNW,293,0.0,0.0,94,0.00,,,0.02,,2013-02-05 14:01:00,
2013-02-05 08:12:00,28.0,27.0,30.04,WNW,293,0.0,0.0,94,0.00,,,0.02,,2013-02-05 14:12:00,
2013-02-05 08:21:00,29.0,27.0,30.04,WNW,293,0.0,0.0,93,0.00,,,0.02,,2013-02-05 14:21:00,
2013-02-05 08:31:00,29.0,27.0,30.04,WNW,293,0.0,0.0,93,0.00,,,0.02,,2013-02-05 14:31:00,
2013-02-05 08:42:00,29.0,27.0,30.04,WNW,293,0.0,0.0,93,0.00,,,0.02,,2013-02-05 14:42:00,
2013-02-05 08:52:00,29.0,27.0,30.03,WNW,293,0.0,0.0,92,0.01,,,0.03,,2013-02-05 14:52:00,
2013-02-05 09:02:00,30.0,28.0,30.03,West,273,0.0,0.0,91,0.01,,,0.03,,2013-02-05 15:02:00,
2013-02-05 09:11:00,30.0,28.0,30.03,West,273,0.0,0.0,91,0.01,,,0.03,,2013-02-05 15:11:00,
2013-02-05 09:21:00,30.0,27.0,30.03,WSW,246,0.0,0.0,90,0.01,,,0.03,,2013-02-05 15:21:00,
2013-02-05 09:32:00,31.0,28.0,30.03,SSW,198,0.0,0.0,89,0.01,,,0.03,,2013-02-05 15:32:00,
2013-02-05 09:41:00,31.0,28.0,30.03,SSW,198,0.0,0.0,89,0.01,,,0.03,,2013-02-05 15:41:00,
2013-02-05 09:52:00,31.0,28.0,30.03,SSW,192,0.0,0.0,89,0.00,,,0.03,,2013-02-05 15:52:00,
2013-02-05 10:01:00,32.0,29.0,30.03,South,187,0.0,0.0,88,0.00,,,0.03,,2013-02-05 16:01:00,
2013-02-05 10:11:00,32.0,29.0,30.03,South,187,0.0,0.0,88,0.00,,,0.03,,2013-02-05 16:11:00,
2013-02-05 10:22:00,32.0,29.0,30.03,SSW,193,0.0,0.0,88,0.00,,,0.03,,2013-02-05 16:22:00,
2013-02-05 10:32:00,33.0,30.0,30.03,SSW,196,0.0,1.0,88,0.00,,,0.03,,2013-02-05 16:32:00,
2013-02-05 10:42:00,33.0,30.0,30.03,SSW,196,0.0,1.0,88,0.00,,,0.03,,2013-02-05 16:42:00,
2013-02-05 10:52:00,34.0,31.0,30.02,South,169,0.0,3.0,87,0.00,,,0.03,,2013-02-05 16:52:00,
2013-02-05 11:01:00,35.0,32.0,30.02,SSW,192,0.0,10.0,87,0.00,,,0.03,,2013-02-05 17:01:00,
2013-02-05 11:11:00,35.0,32.0,30.02,SSW,192,0.0,10.0,87,0.00,,,0.03,,2013-02-05 17:11:00,
2013-02-05 11:21:00,36.0,32.0,30.01,SSW,193,3.0,10.0,86,0.00,,,0.02,,2013-02-05 17:21:00,
2013-02-05 11:32:00,37.0,33.0,30.01,SSW,209,9.0,13.0,85,0.00,,,0.02,,2013-02-05 17:32:00,
2013-02-05 11:42:00,37.0,33.0,30.01,SSW,209,9.0,13.0,85,0.00,,,0.02,,2013-02-05 17:42:00,
2013-02-05 11:52:00,38.0,34.0,30.01,SSW,202,8.0,13.0,85,0.00,,,0.02,,2013-02-05 17:52:00,
2013-02-05 12:02:00,38.0,34.0,30.01,SSW,202,8.0,13.0,85,0.00,,,0.02,,2013-02-05 18:02:00,
2013-02-05 12:11:00,38.0,34.0,30.01,SSW,202,8.0,13.0,85,0.00,,,0.02,,2013-02-05 18:11:00,
2013-02-05 12:22:00,40.0,35.0,29.99,South,169,7.0,13.0,83,0.00,,,0.02,,2013-02-05 18:22:00,
2013-02-05 12:32:00,40.0,35.0,29.98,South,188,6.0,12.0,82,0.00,,,0.02,,2013-02-05 18:32:00,
2013-02-05 12:42:00,40.0,35.0,29.98,South,188,6.0,12.0,82,0.00,,,0.02,,2013-02-05 18:42:00,
2013-02-05 12:52:00,41.0,36.0,29.98,SSW,204,7.0,12.0,82,0.00,,,0.02,,2013-02-05 18:52:00,
2013-02-05 13:02:00,42.0,36.0,29.97,WSW,240,5.0,11.0,79,0.00,,,0.02,,2013-02-05 19:02:00,
2013-02-05 13:11:00,42.0,36.0,29.97,WSW,240,5.0,11.0,79,0.00,,,0.02,,2013-02-05 19:11:00,
2013-02-05 13:21:00,43.0,36.0,29.96,SW,214,7.0,12.0,77,0.00,,,0.01,,2013-02-05 19:21:00,
2013-02-05 13:32:00,44.0,37.0,29.95,West,267,0.0,12.0,75,0.00,,,0.01,,2013-02-05 19:32:00,
2013-02-05 13:42:00,44.0,37.0,29.95,West,267,0.0,12.0,75,0.00,,,0.01,,2013-02-05 19:42:00,
2013-02-05 13:52:00,46.0,37.0,29.93,SSW,197,2.0,9.0,70,0.00,,,0.01,,2013-02-05 19:52:00,
2013-02-05 14:01:00,46.0,36.0,29.86,South,184,6.0,11.0,69,0.00,,,0.01,,2013-02-05 20:01:00,
2013-02-05 14:11:00,46.0,36.0,29.86,South,184,6.0,11.0,69,0.00,,,0.01,,2013-02-05 20:11:00,
2013-02-05 14:21:00,48.0,38.0,29.83,South,189,2.0,12.0,68,0.00,,,0.01,,2013-02-05 20:21:00,
2013-02-05 14:32:00,48.0,37.0,29.94,SSW,207,3.0,10.0,66,0.00,,,0.01,,2013-02-05 20:32:00,
2013-02-05 14:42:00,48.0,37.0,29.94,SSW,207,3.0,10.0,66,0.00,,,0.01,,2013-02-05 20:42:00,
2013-02-05 14:52:00,50.0,39.0,29.91,South,171,1.0,8.0,65,0.00,,,0.01,,2013-02-05 20:52:00,
2013-02-05 15:02:00,50.0,39.0,29.91,South,171,1.0,8.0,65,0.00,,,0.01,,2013-02-05 21:02:00,
2013-02-05 15:11:00,50.0,39.0,29.91,South,171,1.0,8.0,65,0.00,,,0.01,,2013-02-05 21:11:00,
2013-02-05 15:22:00,51.0,38.0,29.86,SW,232,4.0,9.0,60,0.00,,,0.01,,2013-02-05 21:22:00,
2013-02-05 15:32:00,52.0,38.0,29.93,WNW,291,0.0,6.0,58,0.00,,,0.01,,2013-02-05 21:32:00,
2013-02-05 15:42:00,52.0,38.0,29.93,WNW,291,0.0,6.0,58,0.00,,,0.01,,2013-02-05 21:42:00,
2013-02-05 15:52:00,51.0,38.0,29.93,WNW,300,2.0,8.0,60,0.00,,,0.01,,2013-02-05 21:52:00,
2013-02-05 16:01:00,51.0,38.0,29.88,WNW,284,2.0,10.0,60,0.00,,,0.01,,2013-02-05 22:01:00,
2013-02-05 16:11:00,51.0,38.0,29.88,WNW,284,2.0,10.0,60,0.00,,,0.01,,2013-02-05 22:11:00,
2013-02-05 16:21:00,51.0,37.0,29.94,West,271,5.0,11.0,59,0.00,,,0.01,,2013-02-05 22:21:00,
2013-02-05 16:32:00,50.0,36.0,29.90,West,274,5.0,11.0,59,0.00,,,0.01,,2013-02-05 22:32:00,
2013-02-05 16:42:00,50.0,36.0,29.90,West,274,5.0,11.0,59,0.00,,,0.01,,2013-02-05 22:42:00,
2013-02-05 16:52:00,50.0,36.0,29.90,West,274,5.0,11.0,59,0.00,,,0.01,,2013-02-05 22:52:00,
2013-02-05 17:02:00,49.0,37.0,29.96,WNW,285,1.0,5.0,63,0.00,,,0.01,,2013-02-05 23:02:00,
2013-02-05 17:11:00,49.0,37.0,29.96,WNW,285,1.0,5.0,63,0.00,,,0.01,,2013-02-05 23:11:00,
2013-02-05 17:22:00,48.0,37.0,29.97,West,281,0.0,5.0,65,0.00,,,0.01,,2013-02-05 23:22:00,
2013-02-05 17:32:00,46.0,36.0,29.98,WNW,282,0.0,0.0,68,0.00,,,0.01,,2013-02-05 23:32:00,
2013-02-05 17:42:00,46.0,36.0,29.98,WNW,282,0.0,0.0,68,0.00,,,0.01,,2013-02-05 23:42:00,
2013-02-05 17:52:00,45.0,36.0,29.98,WNW,282,0.0,0.0,70,0.00,,,0.01,,2013-02-05 23:52:00,
2013-02-05 18:02:00,43.0,35.0,29.99,WNW,282,0.0,0.0,72,0.00,,,0.01,,2013-02-06 00:02:00,
2013-02-05 18:11:00,43.0,35.0,29.99,WNW,282,0.0,0.0,72,0.00,,,0.01,,2013-02-06 00:11:00,
2013-02-05 18:22:00,42.0,35.0,29.99,WNW,282,0.0,0.0,75,0.00,,,0.01,,2013-02-06 00:22:00,
2013-02-05 18:32:00,42.0,35.0,30.00,WNW,282,0.0,0.0,76,0.00,,,0.01,,2013-02-06 00:32:00,
2013-02-05 18:42:00,42.0,35.0,30.00,WNW,282,0.0,0.0,76,0.00,,,0.01,,2013-02-06 00:42:00,
2013-02-05 18:52:00,42.0,35.0,30.01,WNW,282,0.0,0.0,76,0.00,,,0.01,,2013-02-06 00:52:00,
2013-02-05 19:02:00,41.0,34.0,30.01,WNW,282,0.0,0.0,77,0.00,,,0.01,,2013-02-06 01:02:00,
2013-02-05 19:11:00,41.0,34.0,30.01,WNW,282,0.0,0.0,77,0.00,,,0.01,,2013-02-06 01:11:00,
2013-02-05 19:22:00,40.0,34.0,30.02,WNW,282,0.0,0.0,79,0.00,,,0.01,,2013-02-06 01:22:00,
2013-02-05 19:32:00,40.0,35.0,30.03,WNW,282,0.0,0.0,81,0.00,,,0.01,,2013-02-06 01:32:00,
2013-02-05 19:42:00,40.0,35.0,30.03,WNW,282,0.0,0.0,81,0.00,,,0.01,,2013-02-06 01:42:00,
2013-02-05 19:53:00,39.0,34.0,30.05,WNW,282,0.0,0.0,82,0.00,,,0.01,,2013-02-06 01:53:00,
2013-02-05 20:01:00,39.0,34.0,30.05,WNW,282,0.0,0.0,83,0.00,,,0.01,,2013-02-06 02:01:00,
2013-02-05 20:11:00,39.0,34.0,30.05,WNW,282,0.0,0.0,83,0.00,,,0.01,,2013-02-06 02:11:00,
2013-02-05 20:22:00,39.0,35.0,30.05,WNW,282,0.0,0.0,84,0.00,,,0.01,,2013-02-06 02:22:00,
2013-02-05 20:32:00,41.0,35.0,30.06,NW,320,1.0,6.0,78,0.00,,,0.01,,2013-02-06 02:32:00,
2013-02-05 20:42:00,41.0,35.0,30.06,NW,320,1.0,6.0,78,0.00,,,0.01,,2013-02-06 02:42:00,
2013-02-05 20:52:00,41.0,35.0,30.07,NNW,336,0.0,4.0,78,0.00,,,0.01,,2013-02-06 02:52:00,
2013-02-05 21:02:00,40.0,34.0,30.08,NW,325,0.0,2.0,78,0.00,,,0.01,,2013-02-06 03:02:00,
2013-02-05 21:12:00,40.0,34.0,30.08,NW,325,0.0,2.0,78,0.00,,,0.01,,2013-02-06 03:12:00,
2013-02-05 21:22:00,40.0,34.0,30.09,NNW,336,0.0,8.0,78,0.00,,,0.01,,2013-02-06 03:22:00,
2013-02-05 21:32:00,41.0,34.0,30.10,NNW,339,0.0,6.0,76,0.00,,,0.01,,2013-02-06 03:32:00,
2013-02-05 21:42:00,41.0,34.0,30.10,NNW,339,0.0,6.0,76,0.00,,,0.01,,2013-02-06 03:42:00,
2013-02-05 21:53:00,40.0,33.0,30.10,NW,317,3.0,9.0,77,0.00,,,0.01,,2013-02-06 03:53:00,
2013-02-05 22:02:00,40.0,33.0,30.11,NNW,340,5.0,8.0,77,0.00,,,0.01,,2013-02-06 04:02:00,
2013-02-05 22:11:00,40.0,33.0,30.11,NNW,340,5.0,8.0,77,0.00,,,0.01,,2013-02-06 04:11:00,
2013-02-05 22:21:00,39.0,32.0,30.12,NNW,336,3.0,9.0,77,0.00,,,0.01,,2013-02-06 04:21:00,
2013-02-05 22:31:00,39.0,33.0,30.12,NW,319,3.0,7.0,78,0.00,,,0.01,,2013-02-06 04:31:00,
2013-02-05 22:42:00,39.0,33.0,30.12,NW,319,3.0,7.0,78,0.00,,,0.01,,2013-02-06 04:42:00,
2013-02-05 22:52:00,38.0,32.0,30.12,NNW,334,3.0,7.0,79,0.00,,,0.01,,2013-02-06 04:52:00,
2013-02-05 23:02:00,37.0,31.0,30.13,NNW,341,0.0,4.0,80,0.00,,,0.01,,2013-02-06 05:02:00,
2013-02-05 23:12:00,37.0,31.0,30.13,NNW,341,0.0,4.0,80,0.00,,,0.01,,2013-02-06 05:12:00,
2013-02-05 23:22:00,37.0,31.0,30.13,NNW,338,2.0,5.0,80,0.00,,,0.01,,2013-02-06 05:22:00,
2013-02-05 23:31:00,37.0,31.0,30.14,NW,321,2.0,5.0,80,0.00,,,0.01,,2013-02-06 05:31:00,
2013-02-05 23:41:00,37.0,31.0,30.14,NW,321,2.0,5.0,80,0.00,,,0.01,,2013-02-06 05:41:00,
2013-02-05 23:53:00,37.0,31.0,30.15,NNW,340,4.0,8.0,80,0.00,,,0.01,,2013-02-06 05:53:00,